QPF
0.02 0.02 0.02 0.02 0.03 0.02 0.02 0.04 0.03 0.03 0.03 0.03 0.03 0.03 0.04 0.05 0.05 0.06 0.06 0.04 0.02 0.01 0.01 0.01 0.01 0.01 0.01 0.01 0.01 0.02 0.02 0.02 0.01 0.01 0.02 0.03 0.03 0.03
0.02 0.02 0.02 0.04 0.04 0.02 0.02 0.03 0.03 0.03 0.05 0.04 0.03 0.02 0.03 0.03 0.05 0.04 0.03 0.02 0.01 0.01 0.01 0.01 0.01 0.01 0.01 0.01 0.01 0.01 0.01 0.01 0.01 0.01 0.02 0.02 0.03 0.02
0.02 0.02 0.03 0.04 0.04 0.04 0.04 0.04 0.04 0.05 0.06 0.06 0.04 0.03 0.03 0.03 0.04 0.03 0.04 0.03 0.02 0.01 0.01 0.01 0.01 0.02 0.02 0.01 0.01 0.01 0.01 0.01 0.01 0.01 0.02 0.02 0.02 0.03
0.03 0.02 0.03 0.03 0.02 0.02 0.03 0.03 0.04 0.05 0.05 0.06 0.06 0.04 0.03 0.03 0.03 0.03 0.04 0.04 0.03 0.02 0.01 0.01 0.01 0.01 0.01 0.01 0.01 0.01 0.01 0.01 0.01 0.01 0.01 0.01 0.02 0.03
0.03 0.03 0.03 0.03 0.03 0.02 0.02 0.03 0.04 0.04 0.04 0.06 0.07 0.06 0.04 0.04 0.03 0.03 0.03 0.04 0.02 0.02 0.01 0.01 0.01 0.01 0.01 0.01 0.01 0.01 0.01 0.01 0.01 0.01 0.02 0.01 0.01 0.02
0.03 0.03 0.03 0.03 0.03 0.04 0.05 0.05 0.05 0.05 0.05 0.05 0.05 0.06 0.05 0.04 0.04 0.02 0.02 0.04 0.03 0.02 0.01 0.01 0.01 0.01 0.02 0.01 0.01 0.01 0.01 0.02 0.01 0.02 0.02 0.02 0.02 0.02
0.02 0.02 0.02 0.02 0.02 0.03 0.04 0.05 0.05 0.05 0.05 0.04 0.04 0.04 0.04 0.03 0.03 0.02 0.01 0.02 0.04 0.03 0.01 0.01 0.01 0.01 0.01 0.01 0.01 0.01 0.02 0.03 0.03 0.02 0.02 0.02 0.02 0.02
0.01 0.01 0.01 0.02 0.02 0.02 0.01 0.03 0.04 0.06 0.05 0.03 0.04 0.05 0.04 0.03 0.03 0.02 0.03 0.04 0.05 0.03 0.02 0.02 0.02 0.02 0.02 0.01 0.01 0.01 0.02 0.02 0.03 0.03 0.03 0.03 0.02 0.03
0.01 0.01 0.00 0.01 0.02 0.01 0.01 0.02 0.04 0.06 0.09 0.07 0.03 0.03 0.05 0.04 0.03 0.03 0.04 0.04 0.03 0.02 0.03 0.03 0.03 0.02 0.02 0.02 0.02 0.01 0.01 0.02 0.02 0.03 0.03 0.02 0.02 0.02
0.01 0.00 0.01 0.00 0.00 0.00 0.01 0.01 0.02 0.03 0.05 0.07 0.05 0.04 0.04 0.04 0.04 0.03 0.03 0.02 0.02 0.02 0.03 0.03 0.02 0.02 0.02 0.01 0.02 0.01 0.01 0.01 0.01 0.02 0.02 0.02 0.01 0.01
0.00 0.00 0.00 0.00 0.00 0.00 0.00 0.00 0.00 0.01 0.01 0.02 0.03 0.04 0.04 0.04 0.05 0.04 0.03 0.02 0.02 0.02 0.02 0.02 0.01 0.01 0.01 0.01 0.01 0.01 0.01 0.01 0.00 0.01 0.01 0.01 0.01 0.01
0.00 0.01 0.01 0.00 0.00 0.00 0.01 0.01 0.01 0.00 0.01 0.01 0.01 0.02 0.02 0.03 0.03 0.04 0.04 0.03 0.02 0.02 0.02 0.02 0.02 0.01 0.01 0.01 0.01 0.01 0.02 0.02 0.01 0.01 0.01 0.01 0.01 0.01
0.00 0.00 0.00 0.00 0.00 0.01 0.01 0.01 0.01 0.01 0.01 0.01 0.01 0.01 0.02 0.02 0.02 0.02 0.04 0.03 0.02 0.02 0.01 0.02 0.02 0.01 0.01 0.01 0.01 0.02 0.03 0.02 0.02 0.02 0.02 0.02 0.01 0.01
0.00 0.00 0.00 0.00 0.00 0.00 0.01 0.02 0.01 0.01 0.01 0.01 0.01 0.01 0.01 0.01 0.02 0.02 0.03 0.03 0.03 0.03 0.01 0.02 0.02 0.02 0.01 0.01 0.01 0.01 0.01 0.01 0.01 0.01 0.01 0.01 0.01 0.01
0.00 0.00 0.00 0.00 0.00 0.00 0.00 0.01 0.01 0.01 0.01 0.01 0.01 0.01 0.01 0.01 0.02 0.03 0.03 0.03 0.02 0.02 0.01 0.01 0.02 0.01 0.01 0.01 0.01 0.01 0.01 0.00 0.00 0.00 0.01 0.00 0.01 0.01
0.00 0.00 0.00 0.00 0.00 0.00 0.00 0.01 0.01 0.01 0.01 0.01 0.01 0.01 0.01 0.02 0.02 0.03 0.04 0.03 0.02 0.01 0.01 0.01 0.01 0.01 0.01 0.01 0.01 0.01 0.01 0.01 0.01 0.01 0.01 0.01 0.00 0.01
0.01 0.00 0.00 0.00 0.00 0.00 0.00 0.01 0.01 0.01 0.02 0.02 0.02 0.02 0.02 0.03 0.02 0.02 0.02 0.02 0.02 0.02 0.01 0.01 0.01 0.01 0.01 0.01 0.01 0.01 0.01 0.01 0.01 0.01 0.01 0.01 0.00 0.00
0.01 0.01 0.01 0.01 0.00 0.00 0.00 0.01 0.02 0.02 0.02 0.03 0.03 0.03 0.04 0.04 0.04 0.02 0.01 0.01 0.01 0.02 0.02 0.02 0.02 0.02 0.02 0.01 0.01 0.01 0.01 0.01 0.01 0.01 0.01 0.01 0.01 0.00
0.01 0.01 0.01 0.01 0.00 0.00 0.01 0.02 0.02 0.02 0.02 0.03 0.03 0.03 0.03 0.03 0.03 0.03 0.02 0.02 0.01 0.01 0.01 0.01 0.01 0.02 0.03 0.02 0.01 0.01 0.01 0.01 0.01 0.01 0.01 0.01 0.01 0.01
0.01 0.02 0.02 0.01 0.01 0.01 0.01 0.03 0.03 0.03 0.03 0.02 0.03 0.04 0.03 0.03 0.03 0.03 0.03 0.03 0.02 0.02 0.02 0.02 0.02 0.02 0.02 0.03 0.02 0.01 0.01 0.01 0.01 0.01 0.02 0.02 0.01 0.01
0.02 0.02 0.02 0.02 0.02 0.02 0.02 0.03 0.03 0.02 0.02 0.03 0.04 0.04 0.04 0.04 0.03 0.03 0.02 0.02 0.02 0.02 0.02 0.02 0.02 0.02 0.02 0.02 0.02 0.02 0.02 0.01 0.01 0.01 0.01 0.01 0.02 0.01
0.03 0.03 0.03 0.03 0.03 0.04 0.05 0.05 0.04 0.03 0.03 0.04 0.04 0.04 0.04 0.04 0.03 0.03 0.02 0.02 0.02 0.02 0.02 0.02 0.02 0.02 0.02 0.03 0.02 0.02 0.02 0.02 0.02 0.01 0.01 0.01 0.01 0.01
0.04 0.04 0.05 0.05 0.06 0.07 0.07 0.06 0.04 0.04 0.04 0.05 0.04 0.03 0.03 0.03 0.03 0.03 0.02 0.02 0.02 0.02 0.03 0.02 0.02 0.02 0.02 0.03 0.02 0.02 0.02 0.02 0.02 0.02 0.01 0.01 0.01 0.00
MSLP
1013.35 1013.09 1012.84 1012.58 1012.30 1011.97 1011.60 1011.19 1010.75 1010.29 1009.82 1009.34 1008.85 1008.36 1007.87 1007.38 1006.92 1006.52 1006.19 1005.97 1005.86 1005.88 1006.01 1006.22 1006.49 1006.78 1007.07 1007.35 1007.62 1007.88 1008.15 1008.45 1008.79 1009.17 1009.58 1010.01 1010.45 1010.89
1012.79 1012.46 1012.15 1011.84 1011.52 1011.18 1010.82 1010.45 1010.07 1009.69 1009.31 1008.92 1008.52 1008.11 1007.69 1007.26 1006.85 1006.48 1006.17 1005.96 1005.85 1005.85 1005.95 1006.13 1006.35 1006.60 1006.85 1007.09 1007.32 1007.55 1007.81 1008.10 1008.44 1008.84 1009.27 1009.74 1010.22 1010.70
1012.24 1011.85 1011.47 1011.10 1010.73 1010.36 1010.01 1009.68 1009.36 1009.07 1008.78 1008.50 1008.21 1007.90 1007.57 1007.22 1006.89 1006.57 1006.31 1006.12 1006.03 1006.02 1006.11 1006.26 1006.45 1006.66 1006.87 1007.08 1007.28 1007.49 1007.73 1008.02 1008.36 1008.76 1009.22 1009.72 1010.23 1010.75
1011.76 1011.31 1010.87 1010.44 1010.02 1009.63 1009.28 1008.97 1008.71 1008.48 1008.29 1008.10 1007.92 1007.71 1007.49 1007.24 1006.99 1006.75 1006.54 1006.40 1006.34 1006.35 1006.44 1006.58 1006.75 1006.94 1007.13 1007.31 1007.49 1007.68 1007.91 1008.19 1008.53 1008.94 1009.41 1009.93 1010.47 1011.02
1011.38 1010.88 1010.39 1009.91 1009.45 1009.04 1008.68 1008.38 1008.14 1007.97 1007.84 1007.74 1007.64 1007.53 1007.40 1007.25 1007.08 1006.93 1006.80 1006.72 1006.70 1006.75 1006.86 1007.02 1007.20 1007.38 1007.56 1007.73 1007.89 1008.07 1008.29 1008.56 1008.90 1009.31 1009.78 1010.31 1010.87 1011.44
1011.07 1010.55 1010.03 1009.51 1009.02 1008.58 1008.20 1007.90 1007.67 1007.52 1007.42 1007.37 1007.33 1007.29 1007.24 1007.17 1007.09 1007.02 1006.98 1006.98 1007.03 1007.14 1007.29 1007.48 1007.68 1007.88 1008.07 1008.24 1008.41 1008.58 1008.79 1009.05 1009.38 1009.79 1010.26 1010.79 1011.35 1011.92
1010.81 1010.29 1009.75 1009.21 1008.70 1008.23 1007.82 1007.50 1007.26 1007.09 1007.00 1006.96 1006.95 1006.95 1006.95 1006.96 1006.96 1006.97 1007.02 1007.10 1007.23 1007.41 1007.63 1007.87 1008.11 1008.34 1008.55 1008.74 1008.91 1009.09 1009.30 1009.56 1009.88 1010.27 1010.74 1011.26 1011.81 1012.38
1010.54 1010.03 1009.49 1008.95 1008.42 1007.93 1007.50 1007.14 1006.86 1006.67 1006.55 1006.49 1006.48 1006.50 1006.54 1006.59 1006.66 1006.75 1006.88 1007.05 1007.26 1007.52 1007.81 1008.10 1008.39 1008.66 1008.90 1009.11 1009.31 1009.50 1009.71 1009.97 1010.29 1010.67 1011.13 1011.64 1012.18 1012.73
1010.23 1009.74 1009.22 1008.69 1008.16 1007.65 1007.19 1006.80 1006.47 1006.23 1006.07 1005.98 1005.95 1005.96 1006.01 1006.10 1006.22 1006.38 1006.58 1006.83 1007.12 1007.45 1007.80 1008.15 1008.49 1008.80 1009.07 1009.31 1009.52 1009.73 1009.96 1010.22 1010.54 1010.93 1011.37 1011.87 1012.40 1012.93
1009.87 1009.41 1008.92 1008.40 1007.88 1007.37 1006.89 1006.46 1006.10 1005.81 1005.60 1005.47 1005.40 1005.40 1005.46 1005.57 1005.72 1005.93 1006.19 1006.50 1006.86 1007.24 1007.63 1008.02 1008.40 1008.73 1009.03 1009.29 1009.53 1009.76 1010.00 1010.29 1010.62 1011.01 1011.45 1011.93 1012.44 1012.95
1009.48 1009.05 1008.59 1008.11 1007.60 1007.10 1006.61 1006.16 1005.77 1005.44 1005.19 1005.03 1004.94 1004.92 1004.98 1005.10 1005.28 1005.52 1005.82 1006.16 1006.54 1006.95 1007.37 1007.78 1008.16 1008.51 1008.82 1009.10 1009.35 1009.60 1009.87 1010.17 1010.52 1010.92 1011.36 1011.84 1012.33 1012.81
1009.10 1008.71 1008.28 1007.83 1007.35 1006.86 1006.38 1005.93 1005.53 1005.18 1004.91 1004.72 1004.62 1004.59 1004.64 1004.77 1004.96 1005.22 1005.53 1005.88 1006.27 1006.67 1007.08 1007.48 1007.85 1008.19 1008.49 1008.77 1009.04 1009.31 1009.60 1009.92 1010.29 1010.69 1011.14 1011.61 1012.08 1012.53
1008.78 1008.42 1008.03 1007.61 1007.16 1006.70 1006.24 1005.80 1005.40 1005.06 1004.78 1004.59 1004.48 1004.46 1004.51 1004.64 1004.83 1005.08 1005.38 1005.71 1006.07 1006.45 1006.82 1007.17 1007.51 1007.82 1008.11 1008.38 1008.65 1008.92 1009.23 1009.56 1009.94 1010.35 1010.79 1011.24 1011.68 1012.09
1008.55 1008.21 1007.84 1007.45 1007.04 1006.61 1006.17 1005.76 1005.38 1005.06 1004.80 1004.62 1004.52 1004.50 1004.55 1004.67 1004.86 1005.09 1005.36 1005.65 1005.97 1006.28 1006.60 1006.89 1007.18 1007.44 1007.69 1007.94 1008.20 1008.47 1008.78 1009.12 1009.49 1009.90 1010.32 1010.74 1011.14 1011.50
1008.37 1008.06 1007.71 1007.35 1006.96 1006.56 1006.16 1005.78 1005.44 1005.14 1004.91 1004.75 1004.67 1004.66 1004.71 1004.83 1004.99 1005.19 1005.41 1005.66 1005.91 1006.16 1006.40 1006.63 1006.85 1007.06 1007.26 1007.48 1007.71 1007.97 1008.26 1008.58 1008.94 1009.32 1009.71 1010.09 1010.44 1010.74
1008.23 1007.92 1007.60 1007.25 1006.89 1006.52 1006.16 1005.81 1005.51 1005.25 1005.05 1004.92 1004.85 1004.85 1004.90 1005.00 1005.13 1005.29 1005.47 1005.65 1005.84 1006.01 1006.18 1006.34 1006.50 1006.65 1006.81 1006.98 1007.18 1007.40 1007.66 1007.95 1008.27 1008.60 1008.94 1009.26 1009.55 1009.79
1008.06 1007.76 1007.44 1007.11 1006.77 1006.43 1006.09 1005.79 1005.52 1005.30 1005.13 1005.03 1004.98 1004.98 1005.03 1005.10 1005.21 1005.32 1005.44 1005.57 1005.69 1005.80 1005.91 1006.00 1006.10 1006.20 1006.31 1006.44 1006.59 1006.76 1006.97 1007.21 1007.47 1007.75 1008.02 1008.27 1008.49 1008.67
1007.80 1007.51 1007.20 1006.88 1006.55 1006.23 1005.93 1005.66 1005.42 1005.24 1005.10 1005.02 1004.98 1004.98 1005.02 1005.07 1005.14 1005.21 1005.28 1005.35 1005.42 1005.48 1005.53 1005.59 1005.64 1005.69 1005.76 1005.84 1005.94 1006.07 1006.21 1006.39 1006.58 1006.77 1006.97 1007.16 1007.31 1007.44
1007.44 1007.15 1006.84 1006.53 1006.22 1005.93 1005.65 1005.41 1005.21 1005.06 1004.95 1004.88 1004.85 1004.84 1004.86 1004.89 1004.92 1004.95 1004.98 1005.01 1005.03 1005.05 1005.07 1005.10 1005.12 1005.14 1005.17 1005.21 1005.27 1005.34 1005.42 1005.52 1005.63 1005.76 1005.88 1006.00 1006.10 1006.18
1007.01 1006.71 1006.41 1006.11 1005.82 1005.54 1005.29 1005.08 1004.91 1004.78 1004.69 1004.64 1004.61 1004.59 1004.59 1004.59 1004.58 1004.58 1004.57 1004.57 1004.56 1004.56 1004.56 1004.57 1004.57 1004.58 1004.59 1004.60 1004.61 1004.63 1004.66 1004.69 1004.73 1004.78 1004.84 1004.90 1004.96 1005.02
1006.54 1006.25 1005.96 1005.66 1005.38 1005.13 1004.91 1004.72 1004.58 1004.47 1004.40 1004.35 1004.31 1004.28 1004.26 1004.22 1004.19 1004.15 1004.12 1004.09 1004.06 1004.05 1004.05 1004.05 1004.05 1004.06 1004.06 1004.05 1004.04 1004.02 1003.99 1003.97 1003.96 1003.95 1003.96 1003.98 1004.01 1004.05
1006.11 1005.82 1005.53 1005.25 1004.98 1004.75 1004.55 1004.39 1004.26 1004.17 1004.11 1004.06 1004.02 1003.98 1003.93 1003.87 1003.80 1003.74 1003.68 1003.63 1003.60 1003.58 1003.58 1003.59 1003.61 1003.62 1003.62 1003.61 1003.59 1003.54 1003.49 1003.44 1003.38 1003.34 1003.31 1003.31 1003.32 1003.35
1005.76 1005.48 1005.19 1004.92 1004.66 1004.44 1004.26 1004.12 1004.01 1003.93 1003.88 1003.83 1003.78 1003.72 1003.65 1003.56 1003.47 1003.38 1003.30 1003.24 1003.20 1003.19 1003.20 1003.22 1003.26 1003.29 1003.31 1003.31 1003.28 1003.24 1003.18 1003.11 1003.04 1002.97 1002.93 1002.91 1002.91 1002.93
Thickness
5605 5604 5603 5603 5603 5603 5603 5602 5599 5598 5599 5602 5603 5607 5608 5609 5611 5613 5615 5617 5619 5621 5623 5625 5627 5629 5630 5632 5635 5637 5638 5640 5642 5643 5644 5644 5643 5643
5601 5600 5600 5601 5601 5601 5601 5599 5598 5596 5595 5597 5599 5601 5602 5603 5605 5607 5609 5611 5613 5615 5617 5619 5620 5622 5624 5626 5628 5631 5632 5634 5636 5637 5638 5638 5638 5637
5597 5597 5597 5598 5598 5598 5598 5597 5596 5594 5593 5593 5595 5596 5597 5598 5600 5601 5603 5606 5608 5610 5612 5613 5614 5616 5618 5620 5622 5624 5626 5627 5629 5630 5631 5631 5631 5631
5594 5594 5595 5596 5595 5595 5594 5594 5593 5592 5591 5590 5591 5592 5593 5594 5595 5596 5599 5601 5603 5605 5606 5608 5609 5611 5612 5614 5616 5618 5619 5621 5622 5623 5624 5625 5625 5624
5591 5591 5592 5592 5591 5591 5591 5591 5590 5591 5589 5587 5587 5588 5589 5590 5590 5592 5594 5596 5598 5600 5601 5603 5604 5605 5607 5608 5610 5611 5613 5614 5615 5615 5616 5617 5617 5617
5589 5589 5589 5589 5589 5589 5589 5588 5588 5587 5586 5585 5584 5585 5585 5587 5587 5587 5588 5591 5593 5596 5597 5599 5600 5601 5602 5603 5604 5605 5606 5607 5608 5609 5609 5610 5610 5610
5587 5587 5587 5588 5588 5588 5587 5586 5585 5584 5582 5581 5581 5581 5581 5582 5583 5584 5585 5586 5588 5591 5592 5594 5595 5596 5597 5598 5599 5600 5601 5602 5602 5603 5604 5604 5604 5604
5584 5584 5585 5586 5586 5586 5586 5586 5585 5583 5581 5579 5579 5579 5580 5580 5581 5581 5581 5582 5583 5587 5587 5589 5591 5591 5593 5594 5596 5597 5597 5597 5598 5598 5598 5598 5598 5598
5581 5581 5582 5583 5583 5583 5583 5583 5583 5583 5582 5579 5579 5579 5580 5580 5579 5579 5578 5579 5580 5584 5583 5585 5587 5588 5591 5592 5593 5593 5594 5593 5593 5593 5593 5593 5592 5592
5579 5578 5578 5578 5580 5579 5579 5579 5580 5581 5581 5580 5580 5580 5581 5581 5580 5579 5578 5578 5580 5581 5582 5581 5584 5585 5589 5590 5591 5591 5591 5590 5589 5589 5588 5588 5588 5588
5578 5578 5577 5577 5578 5578 5576 5576 5577 5578 5581 5581 5581 5581 5581 5580 5579 5577 5576 5576 5576 5578 5580 5579 5581 5582 5585 5587 5588 5588 5588 5587 5586 5585 5584 5584 5584 5583
5576 5577 5577 5576 5577 5576 5574 5573 5574 5576 5577 5578 5579 5580 5580 5580 5580 5578 5577 5575 5574 5575 5578 5577 5578 5578 5580 5583 5584 5585 5584 5584 5583 5582 5582 5581 5580 5579
5575 5575 5576 5576 5576 5575 5574 5573 5574 5575 5575 5575 5576 5577 5578 5579 5580 5580 5578 5577 5575 5575 5579 5577 5576 5575 5575 5577 5579 5581 5581 5580 5580 5580 5579 5579 5578 5576
5575 5575 5576 5576 5576 5575 5575 5575 5576 5575 5574 5574 5574 5576 5577 5579 5580 5581 5580 5579 5579 5579 5580 5578 5575 5575 5573 5573 5574 5576 5577 5578 5577 5577 5577 5576 5575 5574
5576 5576 5576 5576 5576 5576 5577 5577 5576 5575 5574 5573 5574 5576 5578 5579 5580 5580 5581 5580 5579 5580 5580 5579 5577 5575 5573 5572 5572 5573 5573 5575 5575 5575 5574 5573 5573 5572
5577 5577 5577 5577 5577 5577 5577 5578 5577 5576 5575 5574 5576 5577 5578 5578 5578 5578 5578 5578 5577 5578 5580 5580 5578 5575 5573 5573 5571 5571 5571 5571 5573 5573 5572 5572 5572 5571
5577 5576 5576 5576 5576 5577 5577 5578 5578 5577 5575 5576 5576 5577 5577 5577 5578 5578 5576 5576 5574 5574 5576 5577 5577 5575 5574 5572 5570 5570 5570 5570 5571 5570 5568 5568 5569 5569
5576 5575 5575 5575 5575 5576 5576 5577 5578 5577 5578 5577 5577 5577 5577 5577 5577 5577 5575 5573 5572 5573 5574 5574 5573 5571 5569 5570 5571 5570 5569 5569 5569 5568 5566 5564 5565 5567
5575 5575 5575 5576 5576 5577 5577 5577 5578 5579 5579 5578 5577 5577 5577 5576 5575 5574 5573 5572 5571 5571 5571 5571 5568 5566 5563 5565 5570 5570 5567 5567 5566 5564 5563 5562 5563 5565
5576 5576 5576 5577 5577 5577 5578 5578 5579 5579 5578 5578 5577 5576 5575 5574 5573 5572 5571 5570 5569 5568 5567 5567 5565 5564 5562 5563 5565 5568 5568 5565 5563 5562 5561 5560 5560 5561
5579 5579 5579 5578 5578 5578 5578 5578 5578 5578 5577 5576 5575 5574 5573 5571 5570 5569 5568 5567 5565 5564 5563 5564 5566 5565 5563 5560 5559 5562 5564 5564 5562 5560 5558 5555 5554 5553
5581 5580 5580 5580 5579 5578 5578 5577 5576 5575 5574 5573 5572 5571 5569 5568 5567 5566 5565 5563 5562 5561 5561 5561 5562 5560 5557 5555 5555 5557 5558 5559 5559 5558 5556 5555 5551 5549
5582 5581 5580 5579 5578 5577 5575 5574 5573 5572 5571 5570 5568 5567 5565 5564 5563 5562 5561 5559 5558 5557 5556 5556 5555 5554 5553 5552 5551 5551 5552 5552 5551 5550 5551 5552 5551 5551